Location: East Guldeford
(50.9500°N, 0.7500°E)
Time: 07:42:49
(UTC+00:00)

USA 308 - Pass Details

Date: 12 May 2021
Orbit: 568 x 576 km, 54.0° (Epoch: 10 May)

Event Time Altitude Azimuth Distance (km) Brightness Sun altitude
Rises 21:21:36 0° 293° (WNW) 2,786 7.5 -13.1°
Reaches altitude 10° 21:23:55 10° 287° (WNW) 1,886 6.4 -13.3°
Maximum altitude 21:27:59 43° 216° (SW) 816 3.5 -13.7°
Enters shadow 21:30:15 23° 157° (SSE) 1,248 4.0 -13.9°
